[[{"header":{"parameterUnit":"m.s-1","parameterCategory":1,"la1":30.2991,"la2":30.254,"lo1":-89.0895,"lo2":-89.0444,"dy":0.0017,"dx":0.0017,"nx":28,"ny":28,"refTime":"2024-07-24T09:00:00:Z","depth":0,"parameterNumber":2,"parameterNumberName":"U-component_of_WINDS"},"data":[0,0,0,0,0,0,0,0,0,0,0,0,0,0,0,0,0,0,0,0,0,0,0,0,0,0,0,0,0,0,0,0,0,0,0,0,0,0,0,0,0,0,0,0,0,0,0,0,0,0,0,0,0,0,0,0,0,0,0.6628,0.6628,0,0.6651,0.6651,0.6651,0.6642,0.6641,0.664,0.664,0.6665,0.6666,0.6667,0,0,0,0,0,0,0,0,0,0,0,0,0,0.6578,0.6579,0.6628,0.6628,0.6628,0.6651,0.6651,0.6651,0.6642,0.6641,0.664,0.664,0.6664,0.6666,0.6667,0,0,0,0,0,0,0,0,0,0,0,0,0,0.66,0.6579,0.6627,0.6626,0.6626,0.6651,0.6651,0.6651,0.6642,0.6641,0.664,0.6639,0.6664,0.6666,0.6667,0.6695,0,0,0.6673,0.6673,0,0,0,0,0,0,0,0,0.6599,0.6602,0.6626,0.6626,0.6626,0.6642,0.6643,0.6666,0.6642,0.6636,0.664,0.6639,0.6658,0.666,0.6666,0.6696,0.6697,0.6673,0.6674,0.6675,0.6675,0,0,0,0,0,0,0,0.6597,0.6601,0.6637,0.6626,0.6627,0.6625,0.6627,0.6647,0.6651,0.6636,0.6636,0.6639,0.6658,0.6665,0.6667,0.6697,0.6673,0.6674,0.6675,0.6676,0.6755,0.6756,0,0,0,0,0,0,0.6596,0.66,0.6636,0.6637,0.661,0.6627,0.6629,0.6638,0.6651,0.6652,0.6639,0.6638,0.6662,0.6665,0.6668,0.6704,0.6675,0.6676,0.6677,0.6754,0.6756,0.6757,0,0,0,0,0,0,0.6595,0.6599,0.6635,0.6619,0.6623,0.6629,0.6639,0.6639,0.6646,0.6653,0.6654,0.6645,0.6662,0.6665,0.6689,0.6705,0.6677,0.6679,0.6753,0.6755,0.6756,0.6775,0,0,0,0,0,0,0.6593,0.6599,0.6608,0.6619,0.6624,0.6655,0.6639,0.664,0.6649,0.6647,0.6659,0.666,0.6661,0.6687,0.6691,0.6707,0.668,0.6752,0.6754,0.6756,0.6773,0.6777,0.678,0,0,0,0,0,0.6591,0.6612,0.6609,0.6613,0.6636,0.6656,0.6659,0.6659,0.665,0.6661,0.6666,0.666,0.6702,0.6689,0.6694,0.671,0.6751,0.6753,0.6756,0.6771,0.6776,0.678,0,0,0,0,0,0,0.6602,0.6613,0.661,0.6634,0.6644,0.6654,0.6667,0.6664,0.6677,0.6675,0.6675,0.6678,0.6704,0.6709,0.6694,0.674,0.6725,0.6729,0.6735,0.674,0.6744,0.6743,0.6682,0,0,0,0,0,0.6608,0.6622,0.6631,0.6652,0.6657,0.6661,0.667,0.667,0.668,0.6685,0.6692,0.6703,0.6719,0.673,0.6744,0.6773,0.6778,0.6787,0.6791,0.6794,0.6797,0.6817,0.6822,0.6764,0.6764,0.6764,0,0,0.6619,0.6626,0.6635,0.6654,0.6662,0.6679,0.6665,0.6682,0.6695,0.6687,0.6711,0.6717,0.673,0.6757,0.677,0.6763,0.6814,0.6797,0.6799,0.6801,0.682,0.6825,0.683,0.6766,0.6766,0.6766,0,0,0.6648,0.6654,0.6673,0.6682,0.6694,0.6698,0.6703,0.6714,0.6718,0.6741,0.6737,0.6753,0.6779,0.679,0.6799,0.6835,0.6832,0.684,0.686,0.6879,0.6884,0.6888,0.6904,0.6909,0.6843,0.6843,0.6843,0,0.666,0.6684,0.6684,0.6703,0.6712,0.6706,0.6728,0.6736,0.6753,0.6761,0.6752,0.6788,0.6796,0.6828,0.6837,0.6843,0.6851,0.6839,0.6883,0.6887,0.6891,0.6906,0.6912,0.6844,0.6844,0.6844,0.6844,0,0.67,0.6717,0.6731,0.6749,0.676,0.678,0.6784,0.6796,0.6795,0.68,0.6827,0.6836,0.6855,0.6862,0.686,0.6895,0.689,0.6882,0.6868,0.6897,0.6912,0.6918,0.6846,0.6846,0.6845,0.6845,0,0,0.6735,0.6754,0.676,0.6769,0.6784,0.6798,0.6819,0.6837,0.6849,0.6861,0.6881,0.6905,0.6899,0.6909,0.6909,0.6926,0.6958,0.6916,0.6917,0.6926,0.7,0.7008,0.7015,0.6955,0.6956,0.6957,0.7001,0,0.6767,0.6804,0.6806,0.6839,0.6857,0.6853,0.6872,0.6884,0.689,0.6907,0.6913,0.6932,0.692,0.6927,0.6943,0.6951,0.6974,0.6947,0.6976,0.6977,0.6975,0.7022,0.7029,0.7069,0.7006,0.7007,0.7007,0,0.6809,0.6825,0.686,0.6876,0.6883,0.69,0.6919,0.6934,0.6949,0.6953,0.6966,0.6965,0.6988,0.6972,0.7007,0.6989,0.7001,0.7007,0.7009,0.7013,0.6995,0.703,0.7082,0.7089,0.7016,0.7015,0.7015,0,0.6835,0.6864,0.689,0.6898,0.6916,0.6929,0.6937,0.6951,0.6963,0.698,0.6989,0.7008,0.7019,0.7035,0.704,0.7027,0.7076,0.7059,0.7082,0.7082,0.7093,0.7093,0.715,0.7097,0.7097,0.7096,0.7096,0,0.6872,0.6895,0.6903,0.6919,0.6946,0.6948,0.6975,0.6982,0.6996,0.7015,0.7012,0.703,0.7035,0.7055,0.7059,0.709,0.7094,0.7099,0.71,0.7101,0.71,0.711,0.7108,0.7098,0.7098,0.7097,0.7097,0,0.6906,0.6911,0.694,0.6956,0.6961,0.698,0.6994,0.7011,0.7017,0.7042,0.7048,0.7058,0.7081,0.7088,0.7116,0.7119,0.7156,0.7153,0.7151,0.7151,0.7175,0.7174,0.7242,0.7252,0.719,0.719,0.7191,0,0.693,0.6947,0.6966,0.6978,0.6988,0.7008,0.7021,0.7025,0.7039,0.706,0.7075,0.7098,0.7117,0.7156,0.7167,0.7189,0.7189,0.7212,0.7192,0.7194,0.7193,0.7193,0.7197,0.7216,0.7216,0.7217,0.7217,0,0.6973,0.6976,0.6994,0.7015,0.7031,0.7048,0.7064,0.7074,0.7082,0.7098,0.7123,0.7138,0.7168,0.7192,0.7216,0.7226,0.7224,0.7223,0.723,0.7232,0.7231,0.7235,0.7164,0.7222,0.7221,0.7221,0.7221,0.7221,0.7004,0.7021,0.7038,0.706,0.7072,0.7088,0.7106,0.7115,0.7136,0.7161,0.7162,0.719,0.7208,0.724,0.7251,0.7275,0.7268,0.7277,0.728,0.7283,0.7287,0.7226,0.7278,0.7278,0.7278,0.7278,0.7278,0,0.7049,0.7061,0.7081,0.7104,0.7122,0.7119,0.7137,0.7153,0.7178,0.7194,0.7214,0.7244,0.7269,0.7283,0.7308,0.7325,0.7325,0.7331,0.7332,0.7335,0.7289,0.7282,0.7331,0.7331,0.7331,0.7331,0.7331,0.7331,0.7075,0.7105,0.7111,0.7148,0.7159,0.7186,0.7198,0.7214,0.7228,0.7262,0.7283,0.7291,0.7308,0.7336,0.7359,0.7363,0.7374,0.7382,0.7385,0.7343,0.7337,0.7332,0.7326,0.7383,0.7383,0.7429,0.743,0.743]},{"header":{"parameterUnit":"m.s-1","parameterCategory":1,"la1":30.2991,"la2":30.254,"lo1":-89.0895,"lo2":-89.0444,"dy":0.0017,"dx":0.0017,"nx":28,"ny":28,"refTime":"2024-07-24T09:00:00:Z","depth":0,"parameterNumber":3,"parameterNumberName":"V-component_of_WINDS"},"data":[0,0,0,0,0,0,0,0,0,0,0,0,0,0,0,0,0,0,0,0,0,0,0,0,0,0,0,0,0,0,0,0,0,0,0,0,0,0,0,0,0,0,0,0,0,0,0,0,0,0,0,0,0,0,0,0,0,0,-1.5692,-1.5691,0,-1.5573,-1.5571,-1.557,-1.551,-1.551,-1.551,-1.5509,-1.5377,-1.5374,-1.537,0,0,0,0,0,0,0,0,0,0,0,0,0,-1.5857,-1.5854,-1.5692,-1.5691,-1.5689,-1.5573,-1.5571,-1.557,-1.551,-1.551,-1.551,-1.5509,-1.5379,-1.5374,-1.537,0,0,0,0,0,0,0,0,0,0,0,0,0,-1.5766,-1.5854,-1.5692,-1.5646,-1.564,-1.5573,-1.5571,-1.5569,-1.551,-1.551,-1.5509,-1.5509,-1.538,-1.5375,-1.537,-1.5337,0,0,-1.5353,-1.5351,0,0,0,0,0,0,0,0,-1.5771,-1.576,-1.5654,-1.5649,-1.5642,-1.5556,-1.5581,-1.5491,-1.551,-1.5559,-1.5509,-1.5509,-1.5436,-1.5426,-1.5404,-1.5331,-1.5325,-1.5353,-1.535,-1.5348,-1.5346,0,0,0,0,0,0,0,-1.5778,-1.5765,-1.5645,-1.5652,-1.5645,-1.5627,-1.5614,-1.5563,-1.5499,-1.5554,-1.555,-1.5537,-1.5433,-1.5409,-1.54,-1.5324,-1.5353,-1.5348,-1.5345,-1.5343,-1.5213,-1.5213,0,0,0,0,0,0,-1.5793,-1.5771,-1.5648,-1.5641,-1.5709,-1.5624,-1.5609,-1.5584,-1.5499,-1.5486,-1.5537,-1.5535,-1.5418,-1.5406,-1.5395,-1.5349,-1.5348,-1.5343,-1.534,-1.5214,-1.5213,-1.5213,0,0,0,0,0,0,-1.5797,-1.5783,-1.5653,-1.5704,-1.5687,-1.5621,-1.5593,-1.5581,-1.5557,-1.5486,-1.5473,-1.5525,-1.5417,-1.5403,-1.5352,-1.5344,-1.534,-1.5336,-1.5214,-1.5214,-1.5213,-1.5259,0,0,0,0,0,0,-1.5802,-1.5785,-1.5775,-1.5705,-1.5684,-1.5616,-1.5592,-1.5579,-1.555,-1.5545,-1.5472,-1.5459,-1.5416,-1.536,-1.5347,-1.5336,-1.5331,-1.5214,-1.5214,-1.5213,-1.5258,-1.526,-1.5262,0,0,0,0,0,-1.5808,-1.5791,-1.5775,-1.576,-1.5671,-1.5616,-1.5603,-1.5557,-1.5549,-1.5536,-1.549,-1.5462,-1.5347,-1.5355,-1.534,-1.5328,-1.5215,-1.5214,-1.5213,-1.5257,-1.526,-1.5262,0,0,0,0,0,0,-1.5859,-1.5781,-1.5762,-1.5723,-1.5676,-1.5606,-1.5588,-1.5562,-1.5515,-1.5512,-1.5453,-1.5437,-1.5391,-1.5354,-1.5365,-1.529,-1.5278,-1.5274,-1.5316,-1.5318,-1.532,-1.5329,-1.5327,0,0,0,0,0,-1.5866,-1.5831,-1.5764,-1.5735,-1.5713,-1.5655,-1.5629,-1.5597,-1.5546,-1.5525,-1.5475,-1.5423,-1.5375,-1.5344,-1.5296,-1.5252,-1.5233,-1.5235,-1.5238,-1.524,-1.5237,-1.5206,-1.5206,-1.5211,-1.5211,-1.5211,0,0,-1.588,-1.5833,-1.5814,-1.5744,-1.5705,-1.5666,-1.5639,-1.56,-1.5569,-1.5518,-1.5467,-1.5429,-1.5366,-1.5318,-1.5294,-1.5285,-1.5231,-1.5239,-1.5241,-1.5237,-1.5206,-1.5205,-1.5205,-1.521,-1.521,-1.5211,0,0,-1.5884,-1.5847,-1.5818,-1.5779,-1.572,-1.5681,-1.5674,-1.5606,-1.5579,-1.5528,-1.5488,-1.5449,-1.5368,-1.5324,-1.5292,-1.5277,-1.5247,-1.5262,-1.5273,-1.5244,-1.5243,-1.5243,-1.5234,-1.5232,-1.5259,-1.526,-1.526,0,-1.5907,-1.5851,-1.5805,-1.5768,-1.5736,-1.5691,-1.5658,-1.5621,-1.5549,-1.5526,-1.5519,-1.5415,-1.537,-1.5309,-1.5305,-1.5281,-1.5267,-1.527,-1.5248,-1.5247,-1.5245,-1.5236,-1.5234,-1.5262,-1.5261,-1.5261,-1.5261,0,-1.5881,-1.5842,-1.5825,-1.5759,-1.5725,-1.569,-1.5635,-1.5606,-1.5576,-1.5537,-1.5482,-1.5427,-1.5365,-1.5348,-1.5318,-1.5281,-1.5278,-1.526,-1.5246,-1.5248,-1.5238,-1.5235,-1.5265,-1.5264,-1.5263,-1.5263,0,0,-1.5915,-1.5823,-1.5817,-1.5785,-1.5716,-1.5683,-1.5644,-1.5586,-1.5561,-1.5511,-1.5474,-1.5406,-1.5388,-1.5351,-1.5315,-1.529,-1.5277,-1.5274,-1.5272,-1.5275,-1.5229,-1.5242,-1.5239,-1.5258,-1.5257,-1.5256,-1.5233,0,-1.5908,-1.5841,-1.5797,-1.5745,-1.5706,-1.566,-1.5625,-1.5577,-1.5538,-1.5495,-1.5451,-1.5402,-1.5385,-1.5361,-1.5334,-1.5285,-1.5267,-1.5286,-1.5218,-1.5217,-1.5235,-1.5235,-1.5249,-1.523,-1.523,-1.5229,-1.5229,0,-1.5892,-1.5846,-1.5791,-1.5723,-1.5705,-1.5676,-1.5617,-1.5579,-1.5521,-1.5494,-1.5451,-1.5415,-1.5367,-1.5358,-1.5288,-1.5302,-1.5271,-1.5242,-1.524,-1.523,-1.5222,-1.5223,-1.5223,-1.522,-1.5223,-1.5223,-1.5224,0,-1.592,-1.5844,-1.58,-1.5774,-1.5695,-1.5674,-1.5639,-1.5582,-1.5549,-1.5496,-1.5474,-1.5416,-1.5383,-1.5337,-1.5283,-1.5282,-1.5217,-1.5205,-1.519,-1.5191,-1.5178,-1.5179,-1.5171,-1.5161,-1.5161,-1.5161,-1.5161,0,-1.5916,-1.5884,-1.5811,-1.5785,-1.5745,-1.5692,-1.5653,-1.5614,-1.5562,-1.5523,-1.5479,-1.5443,-1.5376,-1.5329,-1.5287,-1.5233,-1.5219,-1.5193,-1.5182,-1.5196,-1.5199,-1.5174,-1.5173,-1.516,-1.5161,-1.5161,-1.5161,0,-1.5941,-1.5892,-1.5841,-1.577,-1.5751,-1.5724,-1.5661,-1.5631,-1.5589,-1.554,-1.5525,-1.5458,-1.5401,-1.5344,-1.5266,-1.5237,-1.5184,-1.517,-1.5205,-1.5198,-1.5186,-1.5187,-1.516,-1.5153,-1.515,-1.515,-1.515,0,-1.5941,-1.5915,-1.5842,-1.5814,-1.5781,-1.5737,-1.5704,-1.5649,-1.5615,-1.5545,-1.5522,-1.5463,-1.5412,-1.5322,-1.5264,-1.5203,-1.5185,-1.518,-1.5176,-1.519,-1.5182,-1.5184,-1.5179,-1.5182,-1.5182,-1.5182,-1.5183,0,-1.5946,-1.5923,-1.5878,-1.5824,-1.5786,-1.574,-1.5692,-1.5671,-1.5606,-1.5569,-1.5513,-1.5474,-1.5394,-1.5334,-1.5266,-1.5225,-1.5191,-1.5185,-1.5177,-1.5191,-1.5212,-1.5198,-1.5208,-1.5185,-1.5185,-1.5185,-1.5185,-1.5184,-1.5957,-1.593,-1.5874,-1.5825,-1.5783,-1.5739,-1.5707,-1.5661,-1.5614,-1.5548,-1.5517,-1.5458,-1.5396,-1.5302,-1.5261,-1.5211,-1.5202,-1.5192,-1.5189,-1.5188,-1.519,-1.5221,-1.5198,-1.5198,-1.5198,-1.5198,-1.5198,0,-1.5958,-1.5919,-1.5874,-1.581,-1.5769,-1.5745,-1.5689,-1.5656,-1.5607,-1.5553,-1.5505,-1.5436,-1.5377,-1.5313,-1.5249,-1.5221,-1.5203,-1.5205,-1.5206,-1.5196,-1.5203,-1.5214,-1.522,-1.522,-1.522,-1.522,-1.522,-1.522,-1.5953,-1.5907,-1.5876,-1.5806,-1.5766,-1.5712,-1.5682,-1.5639,-1.5595,-1.5523,-1.5474,-1.5435,-1.5375,-1.5305,-1.5248,-1.523,-1.5207,-1.5213,-1.5191,-1.5198,-1.5196,-1.5195,-1.5205,-1.5209,-1.5209,-1.5188,-1.5188,-1.5188]}]]